Regional Weather Roundup
Issued by NWS

Home | Current Version | Previous Version | Text Only | Print | Product List | Glossary On
Versions: 1 2 3 4 5 6 7 8 9 10 11 12 13 14 15 16 17 18 19 20 21 22 23 24 25 26 27 28 29 30 31 32 33 34 35 36 37 38 39 40 41 42 43 44 45 46 47 48 49 50
000
ASUS43 KDTX 191910
RWRMI
MICHIGAN HOURLY REGIONAL WEATHER ROUNDUP
NATIONAL WEATHER SERVICE DETROIT/PONTIAC MI
300 PM EDT FRI SEP 19 2014

NOTE: "FAIR" INDICATES FEW OR NO CLOUDS BELOW 12,000 FEET WITH NO
SIGNIFICANT WEATHER AND/OR OBSTRUCTION TO VISIBILITY.

MIZ047>049-052>055-059>063-066>070-074>076-081>083-192000-
SOUTHEAST LOWER MICHIGAN

CITY           SKY/WX    TMP DP  RH WIND       PRES   REMARKS
ADRIAN         MOSUNNY   68  48  48 SE5       30.18F
ALMA           MOSUNNY   67  51  56 S9        30.15F
ANN ARBOR      SUNNY     67  44  43 W5        30.18F
BAD AXE        MOSUNNY   65  48  55 S13       30.18S
CARO           MOSUNNY   66  43  43 SE9       30.16F
DETROIT CITY   SUNNY     64  51  62 S7        30.19F
DETROIT        PTSUNNY   65  42  43 NE6       30.19F
FLINT          MOSUNNY   68  42  38 SE8       30.17F
GROSSE ILE     SUNNY     63  43  48 S9        30.19S
HILLSDALE      MOSUNNY   68  47  45 S5        30.17F
HOWELL         SUNNY     65  45  49 S3        30.17F

CITY           SKY/WX    TMP DP  RH WIND       PRES   REMARKS
JACKSON        MOSUNNY   67  48  50 S7        30.16F
LAMBERTVILLE   SUNNY     68  46  45 NE6       30.18F
LANSING        PTSUNNY   68  49  50 SE8       30.15F
LAPEER         FAIR      66  42  41 S5        30.18F
MASON          MOSUNNY   67  50  53 S6        30.15F
MONROE         SUNNY     64  52  63 S7        30.18F
MT. CLEMENS    PTSUNNY   61  53  74 S9        30.18F
PONTIAC        MOSUNNY   64  43  46 S7        30.18F
PORT HOPE        N/A     63  50  62 SE7       30.16F
PORT HURON     SUNNY     64  46  52 S13       30.19F
TRI CITIES     MOSUNNY   66  49  54 S8        30.15F
TROY           SUNNY     66  48  51 E7        30.20F
SAGINAW HB     MOSUNNY   66  46  48 S5        30.15F
$$
MIZ043>046-050>051-056>058-064>065-071>073-077>080-192000-
SOUTHWEST LOWER MICHIGAN

CITY           SKY/WX    TMP DP  RH WIND       PRES   REMARKS
BATTLE CREEK   MOSUNNY   69  50  50 SW8       30.16F
BENTON HARBOR  MOSUNNY   70  50  49 SE12      30.12F
BIG RAPIDS     PTSUNNY   67  56  68 SE10G20   30.12F
COLDWATER      MOSUNNY   69  50  50 SE10      30.14F
FREMONT        FAIR      69  51  53 S12       30.11F
HOLLAND        MOSUNNY   72  54  53 S12       30.13F
GRAND RAPIDS   PTSUNNY   69  53  56 S14       30.14F
IONIA          MOCLDY    69  49  48 SE7       30.13F
KALAMAZOO      MOSUNNY   70  50  49 S12       30.16F
LUDINGTON      SUNNY     69  53  55 S17G23    30.08F
MARSHALL       MOSUNNY   68  49  50 SE8       30.14F
MOUNT PLEASANT SUNNY     66  50  56 S6        30.14F
MUSKEGON       PTSUNNY   70  50  49 S15G24    30.11F
SOUTH HAVEN    MOSUNNY   71  51  49 S9        30.13F
$$
MIZ016>042-192000-
NORTHERN LOWER MICHIGAN

CITY           SKY/WX    TMP DP  RH WIND       PRES   REMARKS
ALPENA         MOSUNNY   63  47  55 S17       30.12F
BEAVER ISLAND  MOSUNNY   66  55  69 S10G20    30.02F
BELLAIRE       MOSUNNY   69  49  49 S13G20    30.07F
CADILLAC       MOSUNNY   66  53  63 S15       30.10F
CHARLEVOIX     SUNNY     68  53  57 S10G22    30.08F
FRANKFORT      SUNNY     69  51  51 S13G22    30.05F
GAYLORD        MOSUNNY   63  48  58 S14       30.09F
GRAYLING       MOSUNNY   65  50  59 S10       30.12F
HARBOR SPRINGS MOSUNNY   69  50  51 S9G16     30.06F
HOUGHTON LAKE  MOSUNNY   63  49  60 S14       30.13F
MANISTEE       SUNNY     68  52  56 S13G21    30.08F
OSCODA         MOSUNNY   62  47  58 S12G18    30.14F
PELLSTON       MOSUNNY   69  51  52 SW13G18   30.06F
ROGERS CITY    MOSUNNY   64  53  67 S14       30.10F
TRAVERSE CITY  PTSUNNY   71  50  47 S9G20     30.05F
$$
MIZ007>008-015-192000-
EASTERN UPPER MICHIGAN

CITY           SKY/WX    TMP DP  RH WIND       PRES   REMARKS
KINROSS        MOSUNNY   63  52  67 SE16G22   30.04F
MACKINAC ISLAN MOSUNNY   64  52  65 S8        30.05F
NEWBERRY       CLOUDY    61  53  76 S20G36    29.99F
S. S. MARIE    PTSUNNY   58  47  66 SE10G23   30.04F
MUNISING         N/A     66  54  65 S18G32    29.87F
$$
MIZ004>006-011>014-085-192000-
CENTRAL UPPER MICHIGAN

CITY           SKY/WX    TMP DP  RH WIND       PRES   REMARKS
MANISTIQUE     CLOUDY    59  55  89 S17G26    29.97F
ESCANABA       MOSUNNY   64  55  72 S14G20    29.94F
MENOMINEE      PTSUNNY   70  54  56 SW21G28   29.93F
SAWYER-GWINN   MOSUNNY   63  52  67 S26G36    29.89F
$$
MIZ001>003-009>011-084-192000-
WESTERN UPPER MICHIGAN

CITY           SKY/WX    TMP DP  RH WIND       PRES   REMARKS
IRON MOUNTAIN  PTSUNNY   65  51  60 S20G25    29.88F
HOUGHTON       CLOUDY    65  50  58 S21G31    29.71F
COPPER HARBOR    N/A     63  51  65 SW13G22   29.70F
IRONWOOD       CLOUDY    66  54  63 S17G30    29.73R
$$

ABBREVIATIONS USED IN REMARKS
   TC - TEMPERATURE IN CELSIUS
  WCI - WIND CHILL INDEX
   HX - HEAT INDEX
  VSB - VISIBILITY



USA.gov is the U.S. government's official web portal to all federal, state and local government web resources and services.